Location: Cabo di Oristano
(39.8500°N, 8.4333°E)
Time: 17:15:13
(UTC+00:00)

Cosmos 1092 Rocket - Pass Details

Date: 31 January 2023
Orbit: 954 x 995 km, 83.0° (Epoch: 31 March)

Event Time Altitude Azimuth Distance (km) Brightness Sun altitude
Rises 05:21:24 0° 194° (SSW) 3,697 7.0 -14.5°
Reaches altitude 10° 05:23:57 10° 197° (SSW) 2,752 6.3 -14.0°
Maximum altitude 05:30:14 66° 279° (W) 1,079 4.0 -12.8°
Drops below altitude 10° 05:36:31 10° 1° (N) 2,755 6.3 -11.7°
Sets 05:39:04 0° 5° (N) 3,702 6.9 -11.2°
